Year,Month,Day,Hour,Minute,Value (Times are PST for temperature in C)
2004,06,17,00,00,17.70
2004,06,17,00,01,17.70
2004,06,17,00,02,17.70
2004,06,17,00,03,17.70
2004,06,17,00,04,17.70
2004,06,17,00,05,17.70
2004,06,17,00,06,17.70
2004,06,17,00,07,17.70
2004,06,17,00,08,17.60
2004,06,17,00,09,17.60
2004,06,17,00,10,17.60
2004,06,17,00,11,17.60
2004,06,17,00,12,17.60
2004,06,17,00,13,17.50
2004,06,17,00,14,17.50
2004,06,17,00,15,17.50
2004,06,17,00,16,17.60
2004,06,17,00,17,17.60
2004,06,17,00,18,17.50
2004,06,17,00,19,17.60
2004,06,17,00,20,17.60
2004,06,17,00,21,17.60
2004,06,17,00,22,17.60
2004,06,17,00,23,17.60
2004,06,17,00,24,17.60
2004,06,17,00,25,17.60
2004,06,17,00,26,17.70
2004,06,17,00,27,17.70
2004,06,17,00,28,17.70
2004,06,17,00,29,17.70
2004,06,17,00,30,17.60
2004,06,17,00,31,17.60
2004,06,17,00,32,17.60
2004,06,17,00,33,17.50
2004,06,17,00,34,17.50
2004,06,17,00,35,17.50
2004,06,17,00,36,17.50
2004,06,17,00,37,17.50
2004,06,17,00,38,17.50
2004,06,17,00,39,17.60
2004,06,17,00,40,17.60
2004,06,17,00,41,17.60
2004,06,17,00,42,17.50
2004,06,17,00,43,17.50
2004,06,17,00,44,17.40
2004,06,17,00,45,17.40
2004,06,17,00,46,17.40
2004,06,17,00,47,17.30
2004,06,17,00,48,17.30
2004,06,17,00,49,17.30
2004,06,17,00,50,17.30
2004,06,17,00,51,17.30
2004,06,17,00,52,17.30
2004,06,17,00,53,17.30
2004,06,17,00,54,17.30
2004,06,17,00,55,17.30
2004,06,17,00,56,17.30
2004,06,17,00,57,17.30
2004,06,17,00,58,17.30
2004,06,17,00,59,17.30
2004,06,17,01,00,17.40
2004,06,17,01,01,17.40
2004,06,17,01,02,17.40
2004,06,17,01,03,17.40
2004,06,17,01,04,17.40
2004,06,17,01,05,17.40
2004,06,17,01,06,17.40
2004,06,17,01,07,17.30
2004,06,17,01,08,17.10
2004,06,17,01,09,17.00
2004,06,17,01,10,16.90
2004,06,17,01,11,16.90
2004,06,17,01,12,16.90
2004,06,17,01,13,16.90
2004,06,17,01,14,16.90
2004,06,17,01,15,16.90
2004,06,17,01,16,17.00
2004,06,17,01,17,17.00
2004,06,17,01,18,16.90
2004,06,17,01,19,16.90
2004,06,17,01,20,16.90
2004,06,17,01,21,16.90
2004,06,17,01,22,16.80
2004,06,17,01,23,16.80
2004,06,17,01,24,16.70
2004,06,17,01,25,16.70
2004,06,17,01,26,16.60
2004,06,17,01,27,16.60
2004,06,17,01,28,16.50
2004,06,17,01,29,16.40
2004,06,17,01,30,16.40
2004,06,17,01,31,16.40
2004,06,17,01,32,16.30
2004,06,17,01,33,16.30
2004,06,17,01,34,16.30
2004,06,17,01,35,16.30
2004,06,17,01,36,16.30
2004,06,17,01,37,16.30
2004,06,17,01,38,16.40
2004,06,17,01,39,16.40
2004,06,17,01,40,16.40
2004,06,17,01,41,16.30
2004,06,17,01,42,16.30
2004,06,17,01,43,16.20
2004,06,17,01,44,16.10
2004,06,17,01,45,16.10
2004,06,17,01,46,16.10
2004,06,17,01,47,16.10
2004,06,17,01,48,16.10
2004,06,17,01,49,16.10
2004,06,17,01,50,16.00
2004,06,17,01,51,15.90
2004,06,17,01,52,15.90
2004,06,17,01,53,15.90
2004,06,17,01,54,15.90
2004,06,17,01,55,16.00
2004,06,17,01,56,16.10
2004,06,17,01,57,16.10
2004,06,17,01,58,16.10
2004,06,17,01,59,16.10
2004,06,17,02,00,16.10
2004,06,17,02,01,16.10
2004,06,17,02,02,16.00
2004,06,17,02,03,15.90
2004,06,17,02,04,15.90
2004,06,17,02,05,15.80
2004,06,17,02,06,15.80
2004,06,17,02,07,15.80
2004,06,17,02,08,15.80
2004,06,17,02,09,15.80
2004,06,17,02,10,15.80
2004,06,17,02,11,15.80
2004,06,17,02,12,15.60
2004,06,17,02,13,15.50
2004,06,17,02,14,15.40
2004,06,17,02,15,15.30
2004,06,17,02,16,15.30
2004,06,17,02,17,15.30
2004,06,17,02,18,15.20
2004,06,17,02,19,15.20
2004,06,17,02,20,15.20
2004,06,17,02,21,15.20
2004,06,17,02,22,15.20
2004,06,17,02,23,15.20
2004,06,17,02,24,15.20
2004,06,17,02,25,15.20
2004,06,17,02,26,15.30
2004,06,17,02,27,15.30
2004,06,17,02,28,15.40
2004,06,17,02,29,15.40
2004,06,17,02,30,15.50
2004,06,17,02,31,15.60
2004,06,17,02,32,15.60
2004,06,17,02,33,15.60
2004,06,17,02,34,15.50
2004,06,17,02,35,15.50
2004,06,17,02,36,15.40
2004,06,17,02,37,15.50
2004,06,17,02,38,15.60
2004,06,17,02,39,15.60
2004,06,17,02,40,15.70
2004,06,17,02,41,15.80
2004,06,17,02,42,15.90
2004,06,17,02,43,15.90
2004,06,17,02,44,16.10
2004,06,17,02,45,16.10
2004,06,17,02,46,16.10
2004,06,17,02,47,16.10
2004,06,17,02,48,16.10
2004,06,17,02,49,16.10
2004,06,17,02,50,16.10
2004,06,17,02,51,16.10
2004,06,17,02,52,16.20
2004,06,17,02,53,16.30
2004,06,17,02,54,16.30
2004,06,17,02,55,16.30
2004,06,17,02,56,16.30
2004,06,17,02,57,16.40
2004,06,17,02,58,16.40
2004,06,17,02,59,16.40
2004,06,17,03,00,16.40
2004,06,17,03,01,16.40
2004,06,17,03,02,16.40
2004,06,17,03,03,16.40
2004,06,17,03,04,16.40
2004,06,17,03,05,16.40
2004,06,17,03,06,16.40
2004,06,17,03,07,16.40
2004,06,17,03,08,16.40
2004,06,17,03,09,16.40
2004,06,17,03,10,16.50
2004,06,17,03,11,16.60
2004,06,17,03,12,16.60
2004,06,17,03,13,16.70
2004,06,17,03,14,16.70
2004,06,17,03,15,16.80
2004,06,17,03,16,16.80
2004,06,17,03,17,16.90
2004,06,17,03,18,16.90
2004,06,17,03,19,16.90
2004,06,17,03,20,16.90
2004,06,17,03,21,16.90
2004,06,17,03,22,16.90
2004,06,17,03,23,16.90
2004,06,17,03,24,16.90
2004,06,17,03,25,16.90
2004,06,17,03,26,16.80
2004,06,17,03,27,16.80
2004,06,17,03,28,16.80
2004,06,17,03,29,16.80
2004,06,17,03,30,16.80
2004,06,17,03,31,16.90
2004,06,17,03,32,16.90
2004,06,17,03,33,17.00
2004,06,17,03,34,17.00
2004,06,17,03,35,17.00
2004,06,17,03,36,17.10
2004,06,17,03,37,17.10
2004,06,17,03,38,17.20
2004,06,17,03,39,17.30
2004,06,17,03,40,17.30
2004,06,17,03,41,17.30
2004,06,17,03,42,17.30
2004,06,17,03,43,17.30
2004,06,17,03,44,17.40
2004,06,17,03,45,17.40
2004,06,17,03,46,17.40
2004,06,17,03,47,17.40
2004,06,17,03,48,17.40
2004,06,17,03,49,17.40
2004,06,17,03,50,17.40
2004,06,17,03,51,17.40
2004,06,17,03,52,17.40
2004,06,17,03,53,17.50
2004,06,17,03,54,17.50
2004,06,17,03,55,17.50
2004,06,17,03,56,17.60
2004,06,17,03,57,17.60
2004,06,17,03,58,17.70
2004,06,17,03,59,17.70
2004,06,17,04,00,17.70
2004,06,17,04,01,17.70
2004,06,17,04,02,17.70
2004,06,17,04,03,17.70
2004,06,17,04,04,17.70
2004,06,17,04,05,17.70
2004,06,17,04,06,17.70
2004,06,17,04,07,17.80
2004,06,17,04,08,17.80
2004,06,17,04,09,17.80
2004,06,17,04,10,17.80
2004,06,17,04,11,17.80
2004,06,17,04,12,17.80
2004,06,17,04,13,17.80
2004,06,17,04,14,17.80
2004,06,17,04,15,17.80
2004,06,17,04,16,17.80
2004,06,17,04,17,17.80
2004,06,17,04,18,17.80
2004,06,17,04,19,17.80
2004,06,17,04,20,17.70
2004,06,17,04,21,17.70
2004,06,17,04,22,17.70
2004,06,17,04,23,17.70
2004,06,17,04,24,17.70
2004,06,17,04,25,17.70
2004,06,17,04,26,17.70
2004,06,17,04,27,17.60
2004,06,17,04,28,17.70
2004,06,17,04,29,17.60
2004,06,17,04,30,17.60
2004,06,17,04,31,17.60
2004,06,17,04,32,17.60
2004,06,17,04,33,17.70
2004,06,17,04,34,17.70
2004,06,17,04,35,17.70
2004,06,17,04,36,17.60
2004,06,17,04,37,17.60
2004,06,17,04,38,17.60
2004,06,17,04,39,17.60
2004,06,17,04,40,17.60
2004,06,17,04,41,17.50
2004,06,17,04,42,17.50
2004,06,17,04,43,17.50
2004,06,17,04,44,17.50
2004,06,17,04,45,17.40
2004,06,17,04,46,17.40
2004,06,17,04,47,17.40
2004,06,17,04,48,17.40
2004,06,17,04,49,17.40
2004,06,17,04,50,17.50
2004,06,17,04,51,17.50
2004,06,17,04,52,17.60
2004,06,17,04,53,17.60
2004,06,17,04,54,17.60
2004,06,17,04,55,17.60
2004,06,17,04,56,17.60
2004,06,17,04,57,17.60
2004,06,17,04,58,17.60
2004,06,17,04,59,17.60
2004,06,17,05,00,17.60
2004,06,17,05,01,17.60
2004,06,17,05,02,17.60
2004,06,17,05,03,17.60
2004,06,17,05,04,17.60
2004,06,17,05,05,17.60
2004,06,17,05,06,17.60
2004,06,17,05,07,17.70
2004,06,17,05,08,17.70
2004,06,17,05,09,17.80
2004,06,17,05,10,17.80
2004,06,17,05,11,17.90
2004,06,17,05,12,17.90
2004,06,17,05,13,17.90
2004,06,17,05,14,17.90
2004,06,17,05,15,17.90
2004,06,17,05,16,17.90
2004,06,17,05,17,17.90
2004,06,17,05,18,17.90
2004,06,17,05,19,17.90
2004,06,17,05,20,17.80
2004,06,17,05,21,17.80
2004,06,17,05,22,17.80
2004,06,17,05,23,17.70
2004,06,17,05,24,17.70
2004,06,17,05,25,17.70
2004,06,17,05,26,17.70
2004,06,17,05,27,17.70
2004,06,17,05,28,17.70
2004,06,17,05,29,17.70
2004,06,17,05,30,17.70
2004,06,17,05,31,17.80
2004,06,17,05,32,17.80
2004,06,17,05,33,17.80
2004,06,17,05,34,17.80
2004,06,17,05,35,17.80
2004,06,17,05,36,17.80
2004,06,17,05,37,17.90
2004,06,17,05,38,17.90
2004,06,17,05,39,17.90
2004,06,17,05,40,17.90
2004,06,17,05,41,17.90
2004,06,17,05,42,17.90
2004,06,17,05,43,17.90
2004,06,17,05,44,17.90
2004,06,17,05,45,18.00
2004,06,17,05,46,18.10
2004,06,17,05,47,18.10
2004,06,17,05,48,18.10
2004,06,17,05,49,18.10
2004,06,17,05,50,18.10
2004,06,17,05,51,18.20
2004,06,17,05,52,18.20
2004,06,17,05,53,18.20
2004,06,17,05,54,18.20
2004,06,17,05,55,18.20
2004,06,17,05,56,18.20
2004,06,17,05,57,18.20
2004,06,17,05,58,18.20
2004,06,17,05,59,18.20
2004,06,17,06,00,18.30
2004,06,17,06,01,18.30
2004,06,17,06,02,18.30
2004,06,17,06,03,18.30
2004,06,17,06,04,18.40
2004,06,17,06,05,18.30
2004,06,17,06,06,18.30
2004,06,17,06,07,18.30
2004,06,17,06,08,18.30
2004,06,17,06,09,18.40
2004,06,17,06,10,18.40
2004,06,17,06,11,18.40
2004,06,17,06,12,18.40
2004,06,17,06,13,18.40
2004,06,17,06,14,18.50
2004,06,17,06,15,18.50
2004,06,17,06,16,18.50
2004,06,17,06,17,18.50
2004,06,17,06,18,18.60
2004,06,17,06,19,18.60
2004,06,17,06,20,18.60
2004,06,17,06,21,18.60
2004,06,17,06,22,18.70
2004,06,17,06,23,18.70
2004,06,17,06,24,18.80
2004,06,17,06,25,18.80
2004,06,17,06,26,18.80
2004,06,17,06,27,18.90
2004,06,17,06,28,18.90
2004,06,17,06,29,18.90
2004,06,17,06,30,18.90
2004,06,17,06,31,18.90
2004,06,17,06,32,18.90
2004,06,17,06,33,18.90
2004,06,17,06,34,18.90
2004,06,17,06,35,18.90
2004,06,17,06,36,18.90
2004,06,17,06,37,18.90
2004,06,17,06,38,19.00
2004,06,17,06,39,19.00
2004,06,17,06,40,19.10
2004,06,17,06,41,19.10
2004,06,17,06,42,19.10
2004,06,17,06,43,19.10
2004,06,17,06,44,19.10
2004,06,17,06,45,19.20
2004,06,17,06,46,19.20
2004,06,17,06,47,19.30
2004,06,17,06,48,19.40
2004,06,17,06,49,19.50
2004,06,17,06,50,19.50
2004,06,17,06,51,19.60
2004,06,17,06,52,19.60
2004,06,17,06,53,19.60
2004,06,17,06,54,19.60
2004,06,17,06,55,19.60
2004,06,17,06,56,19.60
2004,06,17,06,57,19.60
2004,06,17,06,58,19.60
2004,06,17,06,59,19.60
2004,06,17,07,00,19.60
2004,06,17,07,01,19.60
2004,06,17,07,02,19.60
2004,06,17,07,03,19.60
2004,06,17,07,04,19.60
2004,06,17,07,05,19.60
2004,06,17,07,06,19.60
2004,06,17,07,07,19.60
2004,06,17,07,08,19.60
2004,06,17,07,09,19.60
2004,06,17,07,10,19.60
2004,06,17,07,11,19.70
2004,06,17,07,12,19.70
2004,06,17,07,13,19.70
2004,06,17,07,14,19.80
2004,06,17,07,15,19.80
2004,06,17,07,16,19.80
2004,06,17,07,17,19.80
2004,06,17,07,18,19.80
2004,06,17,07,19,19.90
2004,06,17,07,20,19.90
2004,06,17,07,21,19.90
2004,06,17,07,22,19.90
2004,06,17,07,23,19.90
2004,06,17,07,24,19.90
2004,06,17,07,25,19.90
2004,06,17,07,26,19.90
2004,06,17,07,27,19.90
2004,06,17,07,28,19.90
2004,06,17,07,29,20.00
2004,06,17,07,30,20.10
2004,06,17,07,31,20.00
2004,06,17,07,32,19.90
2004,06,17,07,33,20.00
2004,06,17,07,34,20.00
2004,06,17,07,35,20.00
2004,06,17,07,36,19.90
2004,06,17,07,37,20.00
2004,06,17,07,38,20.00
2004,06,17,07,39,20.00
2004,06,17,07,40,20.10
2004,06,17,07,41,20.10
2004,06,17,07,42,20.10
2004,06,17,07,43,20.20
2004,06,17,07,44,20.20
2004,06,17,07,45,20.20
2004,06,17,07,46,20.20
2004,06,17,07,47,20.20
2004,06,17,07,48,20.20
2004,06,17,07,49,20.20
2004,06,17,07,50,20.20
2004,06,17,07,51,20.20
2004,06,17,07,52,20.30
2004,06,17,07,53,20.30
2004,06,17,07,54,20.40
2004,06,17,07,55,20.40
2004,06,17,07,56,20.50
2004,06,17,07,57,20.50
2004,06,17,07,58,20.60
2004,06,17,07,59,20.70
2004,06,17,08,00,20.70
2004,06,17,08,01,20.60
2004,06,17,08,02,20.60
2004,06,17,08,03,20.60
2004,06,17,08,04,20.50
2004,06,17,08,05,20.60
2004,06,17,08,06,20.70
2004,06,17,08,07,20.70
2004,06,17,08,08,20.70
2004,06,17,08,09,20.70
2004,06,17,08,10,20.80
2004,06,17,08,11,20.80
2004,06,17,08,12,20.80
2004,06,17,08,13,21.00
2004,06,17,08,14,21.00
2004,06,17,08,15,21.00
2004,06,17,08,16,21.00
2004,06,17,08,17,21.10
2004,06,17,08,18,21.20
2004,06,17,08,19,21.20
2004,06,17,08,20,21.20
2004,06,17,08,21,21.20
2004,06,17,08,22,21.10
2004,06,17,08,23,21.00
2004,06,17,08,24,20.90
2004,06,17,08,25,20.90
2004,06,17,08,26,20.90
2004,06,17,08,27,20.90
2004,06,17,08,28,21.00
2004,06,17,08,29,21.00
2004,06,17,08,30,21.10
2004,06,17,08,31,21.10
2004,06,17,08,32,21.20
2004,06,17,08,33,21.30
2004,06,17,08,34,21.30
2004,06,17,08,35,21.30
2004,06,17,08,36,21.40
2004,06,17,08,37,21.40
2004,06,17,08,38,21.50
2004,06,17,08,39,21.60
2004,06,17,08,40,21.60
2004,06,17,08,41,21.60
2004,06,17,08,42,21.60
2004,06,17,08,43,21.60
2004,06,17,08,44,21.60
2004,06,17,08,45,21.60
2004,06,17,08,46,21.50
2004,06,17,08,47,21.60
2004,06,17,08,48,21.60
2004,06,17,08,49,21.60
2004,06,17,08,50,21.70
2004,06,17,08,51,21.70
2004,06,17,08,52,21.70
2004,06,17,08,53,21.80
2004,06,17,08,54,21.80
2004,06,17,08,55,21.90
2004,06,17,08,56,21.90
2004,06,17,08,57,22.00
2004,06,17,08,58,22.00
2004,06,17,08,59,22.00
2004,06,17,09,00,22.10
2004,06,17,09,01,22.10
2004,06,17,09,02,22.10
2004,06,17,09,03,22.20
2004,06,17,09,04,22.20
2004,06,17,09,05,22.30
2004,06,17,09,06,22.30
2004,06,17,09,07,22.30
2004,06,17,09,08,22.20
2004,06,17,09,09,22.20
2004,06,17,09,10,22.20
2004,06,17,09,11,22.20
2004,06,17,09,12,22.10
2004,06,17,09,13,22.10
2004,06,17,09,14,22.10
2004,06,17,09,15,22.00
2004,06,17,09,16,22.00
2004,06,17,09,17,22.00
2004,06,17,09,18,22.00
2004,06,17,09,19,22.00
2004,06,17,09,20,22.10
2004,06,17,09,21,22.10
2004,06,17,09,22,22.10
2004,06,17,09,23,22.10
2004,06,17,09,24,22.00
2004,06,17,09,25,22.00
2004,06,17,09,26,22.10
2004,06,17,09,27,22.20
2004,06,17,09,28,22.30
2004,06,17,09,29,22.30
2004,06,17,09,30,22.20
2004,06,17,09,31,22.30
2004,06,17,09,32,22.50
2004,06,17,09,33,22.60
2004,06,17,09,34,22.80
2004,06,17,09,35,22.80
2004,06,17,09,36,22.80
2004,06,17,09,37,22.80
2004,06,17,09,38,22.70
2004,06,17,09,39,22.60
2004,06,17,09,40,22.60
2004,06,17,09,41,22.60
2004,06,17,09,42,22.60
2004,06,17,09,43,22.70
2004,06,17,09,44,22.70
2004,06,17,09,45,22.60
2004,06,17,09,46,22.60
2004,06,17,09,47,22.60
2004,06,17,09,48,22.60
2004,06,17,09,49,22.70
2004,06,17,09,50,22.80
2004,06,17,09,51,22.80
2004,06,17,09,52,22.80
2004,06,17,09,53,22.80
2004,06,17,09,54,22.80
2004,06,17,09,55,22.90
2004,06,17,09,56,22.90
2004,06,17,09,57,22.90
2004,06,17,09,58,23.00
2004,06,17,09,59,23.10
2004,06,17,10,00,23.00
2004,06,17,10,01,22.90
2004,06,17,10,02,22.90
2004,06,17,10,03,22.90
2004,06,17,10,04,22.90
2004,06,17,10,05,22.90
2004,06,17,10,06,22.90
2004,06,17,10,07,22.90
2004,06,17,10,08,22.90
2004,06,17,10,09,22.90
2004,06,17,10,10,22.90
2004,06,17,10,11,22.90
2004,06,17,10,12,22.90
2004,06,17,10,13,22.90
2004,06,17,10,14,22.90
2004,06,17,10,15,23.00
2004,06,17,10,16,23.10
2004,06,17,10,17,23.20
2004,06,17,10,18,23.10
2004,06,17,10,19,23.00
2004,06,17,10,20,22.90
2004,06,17,10,21,23.00
2004,06,17,10,22,23.00
2004,06,17,10,23,23.10
2004,06,17,10,24,23.20
2004,06,17,10,25,23.30
2004,06,17,10,26,23.20
2004,06,17,10,27,23.10
2004,06,17,10,28,23.10
2004,06,17,10,29,23.20
2004,06,17,10,30,23.20
2004,06,17,10,31,23.30
2004,06,17,10,32,23.30
2004,06,17,10,33,23.40
2004,06,17,10,34,23.40
2004,06,17,10,35,23.40
2004,06,17,10,36,23.50
2004,06,17,10,37,23.60
2004,06,17,10,38,23.70
2004,06,17,10,39,23.70
2004,06,17,10,40,23.70
2004,06,17,10,41,23.70
2004,06,17,10,42,23.70
2004,06,17,10,43,23.70
2004,06,17,10,44,23.70
2004,06,17,10,45,23.70
2004,06,17,10,46,23.70
2004,06,17,10,47,23.70
2004,06,17,10,48,23.70
2004,06,17,10,49,23.70
2004,06,17,10,50,23.70
2004,06,17,10,51,23.70
2004,06,17,10,52,23.80
2004,06,17,10,53,23.80
2004,06,17,10,54,23.80
2004,06,17,10,55,24.00
2004,06,17,10,56,24.10
2004,06,17,10,57,24.00
2004,06,17,10,58,23.80
2004,06,17,10,59,23.80
2004,06,17,11,00,23.90
2004,06,17,11,01,23.80
2004,06,17,11,02,23.80
2004,06,17,11,03,23.80
2004,06,17,11,04,23.90
2004,06,17,11,05,23.90
2004,06,17,11,06,23.90
2004,06,17,11,07,23.90
2004,06,17,11,08,23.80
2004,06,17,11,09,23.80
2004,06,17,11,10,23.90
2004,06,17,11,11,23.90
2004,06,17,11,12,23.90
2004,06,17,11,13,23.90
2004,06,17,11,14,23.90
2004,06,17,11,15,24.00
2004,06,17,11,16,24.10
2004,06,17,11,17,24.10
2004,06,17,11,18,24.20
2004,06,17,11,19,24.30
2004,06,17,11,20,24.30
2004,06,17,11,21,24.30
2004,06,17,11,22,24.30
2004,06,17,11,23,24.40
2004,06,17,11,24,24.40
2004,06,17,11,25,24.50
2004,06,17,11,26,24.50
2004,06,17,11,27,24.60
2004,06,17,11,28,24.70
2004,06,17,11,29,24.80
2004,06,17,11,30,24.80
2004,06,17,11,31,24.80
2004,06,17,11,32,24.80
2004,06,17,11,33,24.90
2004,06,17,11,34,24.90
2004,06,17,11,35,25.00
2004,06,17,11,36,25.20
2004,06,17,11,37,25.30
2004,06,17,11,38,25.30
2004,06,17,11,39,25.20
2004,06,17,11,40,25.20
2004,06,17,11,41,25.10
2004,06,17,11,42,25.00
2004,06,17,11,43,25.10
2004,06,17,11,44,25.20
2004,06,17,11,45,25.20
2004,06,17,11,46,25.20
2004,06,17,11,47,25.20
2004,06,17,11,48,25.20
2004,06,17,11,49,25.10
2004,06,17,11,50,25.10
2004,06,17,11,51,25.10
2004,06,17,11,52,25.10
2004,06,17,11,53,25.30
2004,06,17,11,54,25.40
2004,06,17,11,55,25.50
2004,06,17,11,56,25.50
2004,06,17,11,57,25.40
2004,06,17,11,58,25.30
2004,06,17,11,59,25.20
2004,06,17,12,00,25.10
2004,06,17,12,01,25.10
2004,06,17,12,02,25.20
2004,06,17,12,03,25.20
2004,06,17,12,04,25.20
2004,06,17,12,05,25.10
2004,06,17,12,06,25.10
2004,06,17,12,07,25.20
2004,06,17,12,08,25.30
2004,06,17,12,09,25.40
2004,06,17,12,10,25.40
2004,06,17,12,11,25.50
2004,06,17,12,12,25.60
2004,06,17,12,13,25.60
2004,06,17,12,14,25.70
2004,06,17,12,15,25.70
2004,06,17,12,16,25.80
2004,06,17,12,17,25.90
2004,06,17,12,18,26.00
2004,06,17,12,19,25.90
2004,06,17,12,20,25.90
2004,06,17,12,21,26.00
2004,06,17,12,22,26.00
2004,06,17,12,23,25.90
2004,06,17,12,24,25.90
2004,06,17,12,25,25.80
2004,06,17,12,26,25.60
2004,06,17,12,27,25.60
2004,06,17,12,28,25.50
2004,06,17,12,29,25.50
2004,06,17,12,30,25.60
2004,06,17,12,31,25.50
2004,06,17,12,32,25.60
2004,06,17,12,33,25.60
2004,06,17,12,34,25.60
2004,06,17,12,35,25.80
2004,06,17,12,36,25.80
2004,06,17,12,37,25.80
2004,06,17,12,38,25.70
2004,06,17,12,39,25.60
2004,06,17,12,40,25.60
2004,06,17,12,41,25.60
2004,06,17,12,42,25.50
2004,06,17,12,43,25.50
2004,06,17,12,44,25.50
2004,06,17,12,45,25.60
2004,06,17,12,46,25.60
2004,06,17,12,47,25.70
2004,06,17,12,48,25.60
2004,06,17,12,49,25.60
2004,06,17,12,50,25.70
2004,06,17,12,51,25.70
2004,06,17,12,52,25.80
2004,06,17,12,53,25.90
2004,06,17,12,54,25.90
2004,06,17,12,55,26.00
2004,06,17,12,56,26.00
2004,06,17,12,57,26.10
2004,06,17,12,58,26.10
2004,06,17,12,59,26.20
2004,06,17,13,00,26.10
2004,06,17,13,01,26.10
2004,06,17,13,02,26.10
2004,06,17,13,03,26.10
2004,06,17,13,04,26.20
2004,06,17,13,05,26.20
2004,06,17,13,06,26.30
2004,06,17,13,07,26.30
2004,06,17,13,08,26.40
2004,06,17,13,09,26.40
2004,06,17,13,10,26.40
2004,06,17,13,11,26.60
2004,06,17,13,12,26.60
2004,06,17,13,13,26.90
2004,06,17,13,14,26.90
2004,06,17,13,15,27.00
2004,06,17,13,16,27.00
2004,06,17,13,17,27.10
2004,06,17,13,18,27.10
2004,06,17,13,19,27.20
2004,06,17,13,20,27.20
2004,06,17,13,21,27.30
2004,06,17,13,22,27.30
2004,06,17,13,23,27.30
2004,06,17,13,24,27.40
2004,06,17,13,25,27.30
2004,06,17,13,26,27.40
2004,06,17,13,27,27.40
2004,06,17,13,28,27.50
2004,06,17,13,29,27.40
2004,06,17,13,30,27.30
2004,06,17,13,31,27.30
2004,06,17,13,32,27.30
2004,06,17,13,33,27.20
2004,06,17,13,34,27.20
2004,06,17,13,35,27.20
2004,06,17,13,36,27.20
2004,06,17,13,37,27.20
2004,06,17,13,38,27.20
2004,06,17,13,39,27.20
2004,06,17,13,40,27.30
2004,06,17,13,41,27.30
2004,06,17,13,42,27.20
2004,06,17,13,43,27.20
2004,06,17,13,44,27.20
2004,06,17,13,45,27.30
2004,06,17,13,46,27.30
2004,06,17,13,47,27.40
2004,06,17,13,48,27.40
2004,06,17,13,49,27.50
2004,06,17,13,50,27.60
2004,06,17,13,51,27.70
2004,06,17,13,52,27.80
2004,06,17,13,53,27.90
2004,06,17,13,54,27.90
2004,06,17,13,55,27.80
2004,06,17,13,56,27.70
2004,06,17,13,57,27.70
2004,06,17,13,58,27.70
2004,06,17,13,59,27.70
2004,06,17,14,00,27.70
2004,06,17,14,01,27.60
2004,06,17,14,02,27.70
2004,06,17,14,03,27.60
2004,06,17,14,04,27.50
2004,06,17,14,05,27.40
2004,06,17,14,06,27.50
2004,06,17,14,07,27.50
2004,06,17,14,08,27.60
2004,06,17,14,09,27.60
2004,06,17,14,10,27.60
2004,06,17,14,11,27.70
2004,06,17,14,12,27.90
2004,06,17,14,13,27.90
2004,06,17,14,14,28.00
2004,06,17,14,15,27.90
2004,06,17,14,16,27.80
2004,06,17,14,17,27.80
2004,06,17,14,18,27.80
2004,06,17,14,19,27.70
2004,06,17,14,20,27.60
2004,06,17,14,21,27.70
2004,06,17,14,22,27.70
2004,06,17,14,23,27.60
2004,06,17,14,24,27.70
2004,06,17,14,25,27.80
2004,06,17,14,26,27.90
2004,06,17,14,27,28.00
2004,06,17,14,28,28.10
2004,06,17,14,29,28.40
2004,06,17,14,30,28.50
2004,06,17,14,31,28.50
2004,06,17,14,32,28.40
2004,06,17,14,33,28.50
2004,06,17,14,34,28.60
2004,06,17,14,35,28.60
2004,06,17,14,36,28.70
2004,06,17,14,37,28.80
2004,06,17,14,38,28.80
2004,06,17,14,39,28.80
2004,06,17,14,40,28.80
2004,06,17,14,41,28.90
2004,06,17,14,42,28.90
2004,06,17,14,43,28.90
2004,06,17,14,44,28.90
2004,06,17,14,45,28.90
2004,06,17,14,46,28.90
2004,06,17,14,47,28.80
2004,06,17,14,48,28.60
2004,06,17,14,49,28.60
2004,06,17,14,50,28.60
2004,06,17,14,51,28.60
2004,06,17,14,52,28.60
2004,06,17,14,53,28.60
2004,06,17,14,54,28.50
2004,06,17,14,55,28.50
2004,06,17,14,56,28.50
2004,06,17,14,57,28.60
2004,06,17,14,58,28.60
2004,06,17,14,59,28.50
2004,06,17,15,00,28.50
2004,06,17,15,01,28.60
2004,06,17,15,02,28.60
2004,06,17,15,03,28.60
2004,06,17,15,04,28.60
2004,06,17,15,05,28.60
2004,06,17,15,06,28.50
2004,06,17,15,07,28.50
2004,06,17,15,08,28.50
2004,06,17,15,09,28.50
2004,06,17,15,10,28.60
2004,06,17,15,11,28.60
2004,06,17,15,12,28.60
2004,06,17,15,13,28.60
2004,06,17,15,14,28.60
2004,06,17,15,15,28.60
2004,06,17,15,16,28.50
2004,06,17,15,17,28.60
2004,06,17,15,18,28.60
2004,06,17,15,19,28.80
2004,06,17,15,20,28.80
2004,06,17,15,21,28.80
2004,06,17,15,22,28.80
2004,06,17,15,23,28.80
2004,06,17,15,24,28.70
2004,06,17,15,25,28.60
2004,06,17,15,26,28.60
2004,06,17,15,27,28.60
2004,06,17,15,28,28.60
2004,06,17,15,29,28.70
2004,06,17,15,30,28.70
2004,06,17,15,31,28.80
2004,06,17,15,32,28.80
2004,06,17,15,33,28.80
2004,06,17,15,34,28.80
2004,06,17,15,35,28.90
2004,06,17,15,36,28.80
2004,06,17,15,37,28.80
2004,06,17,15,38,28.80
2004,06,17,15,39,28.90
2004,06,17,15,40,28.90
2004,06,17,15,41,28.90
2004,06,17,15,42,28.90
2004,06,17,15,43,28.90
2004,06,17,15,44,28.90
2004,06,17,15,45,28.90
2004,06,17,15,46,28.90
2004,06,17,15,47,28.90
2004,06,17,15,48,28.90
2004,06,17,15,49,28.90
2004,06,17,15,50,28.90
2004,06,17,15,51,28.90
2004,06,17,15,52,28.90
2004,06,17,15,53,29.00
2004,06,17,15,54,29.10
2004,06,17,15,55,29.10
2004,06,17,15,56,29.10
2004,06,17,15,57,29.10
2004,06,17,15,58,29.10
2004,06,17,15,59,29.10
2004,06,17,16,00,29.10
2004,06,17,16,01,29.10
2004,06,17,16,02,29.10
2004,06,17,16,03,29.10
2004,06,17,16,04,29.20
2004,06,17,16,05,29.30
2004,06,17,16,06,29.30
2004,06,17,16,07,29.40
2004,06,17,16,08,29.30
2004,06,17,16,09,29.30
2004,06,17,16,10,29.20
2004,06,17,16,11,29.20
2004,06,17,16,12,29.10
2004,06,17,16,13,29.10
2004,06,17,16,14,29.20
2004,06,17,16,15,29.20
2004,06,17,16,16,29.30
2004,06,17,16,17,29.40
2004,06,17,16,18,29.40
2004,06,17,16,19,29.50
2004,06,17,16,20,29.50
2004,06,17,16,21,29.50
2004,06,17,16,22,29.50
2004,06,17,16,23,29.50
2004,06,17,16,24,29.50
2004,06,17,16,25,29.50
2004,06,17,16,26,29.40
2004,06,17,16,27,29.40
2004,06,17,16,28,29.40
2004,06,17,16,29,29.40
2004,06,17,16,30,29.50
2004,06,17,16,31,29.50
2004,06,17,16,32,29.50
2004,06,17,16,33,29.40
2004,06,17,16,34,29.40
2004,06,17,16,35,29.30
2004,06,17,16,36,29.40
2004,06,17,16,37,29.40
2004,06,17,16,38,29.40
2004,06,17,16,39,29.50
2004,06,17,16,40,29.60
2004,06,17,16,41,29.70
2004,06,17,16,42,29.80
2004,06,17,16,43,29.80
2004,06,17,16,44,29.90
2004,06,17,16,45,30.00
2004,06,17,16,46,30.10
2004,06,17,16,47,30.10
2004,06,17,16,48,30.20
2004,06,17,16,49,30.20
2004,06,17,16,50,30.20
2004,06,17,16,51,30.20
2004,06,17,16,52,30.20
2004,06,17,16,53,30.20
2004,06,17,16,54,30.20
2004,06,17,16,55,30.10
2004,06,17,16,56,30.10
2004,06,17,16,57,30.00
2004,06,17,16,58,29.80
2004,06,17,16,59,29.80
2004,06,17,17,00,29.90
2004,06,17,17,01,29.80
2004,06,17,17,02,29.70
2004,06,17,17,03,29.80
2004,06,17,17,04,29.80
2004,06,17,17,05,29.90
2004,06,17,17,06,30.10
2004,06,17,17,07,30.10
2004,06,17,17,08,30.10
2004,06,17,17,09,30.20
2004,06,17,17,10,30.10
2004,06,17,17,11,30.10
2004,06,17,17,12,30.00
2004,06,17,17,13,30.00
2004,06,17,17,14,30.00
2004,06,17,17,15,29.90
2004,06,17,17,16,29.90
2004,06,17,17,17,29.90
2004,06,17,17,18,29.90
2004,06,17,17,19,29.90